Location: DaVinci Observatory
(43.1080°N, 78.6453°W)
Time: 03:09:14
(UTC-04:00)

Vanguard 1 Rocket - Visible Passes

Search period start: 20 October 2017 00:00
Search period end: 30 October 2017 00:00
Orbit: 655 x 4222 km, 34.3° (Epoch: 19 October)

Date Brightness Start Highest point End Pass type
(mag) Time Alt. Az. Time Alt. Az. Time Alt. Az.
20 Oct 10.0 06:56:22 10° SSW 07:02:12 19° SSE 07:06:24 10° ESE visible
21 Oct 10.4 05:45:35 10° S 05:50:54 15° SSE 05:54:58 10° SE visible
22 Oct 10.9 04:37:18 10° SSE 04:39:14 10° SSE 04:41:02 10° SE visible
22 Oct 9.7 06:57:55 10° SW 07:05:28 25° SSE 07:10:25 10° ESE visible
23 Oct 10.2 05:46:03 10° SSW 05:54:10 21° SSE 05:59:38 10° ESE visible
24 Oct 10.6 04:34:54 10° S 04:42:29 16° SSE 04:48:02 10° ESE visible
24 Oct 9.4 06:59:52 10° SW 07:08:43 31° S 07:14:07 10° ESE visible
25 Oct 11.0 03:26:08 10° SSE 03:30:25 12° SSE 03:34:07 10° SE visible
25 Oct 9.9 05:47:16 10° SW 05:57:24 28° SSE 06:03:39 10° ESE visible
26 Oct 10.4 04:36:59 13° SSW 04:45:42 23° SSE 04:52:39 10° ESE visible
26 Oct 9.2 07:02:05 10° SW 07:11:56 37° S 07:17:40 10° ESE visible
27 Oct 10.8 03:30:33 17° SSE 03:33:35 18° SSE 03:40:39 10° ESE visible
27 Oct 9.7 05:48:53 10° SW 06:00:37 34° SSE 06:07:22 10° ESE visible
28 Oct 11.2 02:24:00 11° SE 02:24:00 11° SE 02:25:52 10° SE visible
28 Oct 10.1 04:41:21 20° SSW 04:48:52 30° SSE 04:56:41 10° ESE visible
28 Oct 9.1 07:04:29 10° WSW 07:15:09 43° S 07:21:07 10° ESE visible
29 Oct 10.6 03:34:43 23° SSE 03:36:41 24° SSE 03:45:20 10° ESE visible
29 Oct 9.5 05:52:03 12° SW 06:03:48 41° S 06:10:55 10° ESE visible
